This is the latest recevied weather packets stored in our database for station/object KE0LFX. If no packets are shown the sender has not sent any weather packets the latest 10 day(s).
| Time | Temp. | Humidity | Pressure | Rain* | Wind** | Luminosity | Snow |
|---|---|---|---|---|---|---|---|
| 1778032426 | 11.67° C | 42% | 1015.2 hPa | 0 mm | - | 0 W/m² | - |
| 1778032122 | 11.67° C | 42% | 1015 hPa | 0 mm | - | 0 W/m² | - |
| 1778031819 | 12.22° C | 43% | 1014.6 hPa | 0 mm | - | 0 W/m² | - |
| 1778031515 | 12.22° C | 42% | 1014.5 hPa | 0 mm | - | 0 W/m² | - |
| 1778031213 | 12.22° C | 42% | 1014.6 hPa | 0 mm | - | 0 W/m² | - |
| 1778030909 | 12.78° C | 43% | 1014.2 hPa | 0 mm | - | 0 W/m² | - |
| 1778030607 | 12.78° C | 43% | 1014.2 hPa | 0 mm | - | 0 W/m² | - |
| 1778030304 | 12.78° C | 43% | 1014.1 hPa | 0 mm | - | 0 W/m² | - |
| 1778030000 | 12.78° C | 42% | 1014.1 hPa | 0 mm | - | 0 W/m² | - |
| 1778029698 | 12.78° C | 42% | 1014.1 hPa | 0 mm | - | 0 W/m² | - |
| 1778029395 | 12.78° C | 42% | 1013.9 hPa | 0 mm | - | 2 W/m² | - |
| 1778029092 | 12.78° C | 41% | 1014 hPa | 0 mm | - | 3 W/m² | - |
| 1778028789 | 13.33° C | 41% | 1013.9 hPa | 0 mm | - | 5 W/m² | - |
| 1778028485 | 13.33° C | 41% | 1013.8 hPa | 0 mm | - | 7 W/m² | - |
| 1778028183 | 13.33° C | 40% | 1014 hPa | 0 mm | - | 9 W/m² | - |
| 1778027878 | 13.33° C | 40% | 1013.9 hPa | 0 mm | - | 11 W/m² | - |
| 1778027575 | 13.33° C | 39% | 1013.9 hPa | 0 mm | - | 13 W/m² | - |
| 1778027272 | 13.33° C | 39% | 1013.8 hPa | 0 mm | - | 16 W/m² | - |
| 1778026968 | 13.33° C | 39% | 1013.6 hPa | 0 mm | - | 18 W/m² | - |
| 1778026664 | 13.89° C | 38% | 1013.5 hPa | 0 mm | - | 22 W/m² | - |
| 1778026362 | 13.89° C | 38% | 1013.4 hPa | 0 mm | - | 30 W/m² | - |
| 1778026058 | 13.89° C | 37% | 1013.6 hPa | 0 mm | - | 46 W/m² | - |
| 1778025756 | 14.44° C | 37% | 1013.4 hPa | 0 mm | - | 58 W/m² | - |
| 1778025452 | 14.44° C | 37% | 1013.4 hPa | 0 mm | - | 75 W/m² | - |
| 1778025150 | 14.44° C | 36% | 1013.4 hPa | 0 mm | - | 80 W/m² | - |
* Rain latest hour (hover to see other rain measurements)
** Current wind speed in m/s (hover to see current wind gust speed)